リニア彗星

165P/LINEAR (2000)

English version
Home page
Updated on June 25, 2005

---------------------------------------------------------------------

・ プロフィール

符号 165P/2000 B4
発見日 2000年1月29日
発見光度 19.4等
発見者 Lincoln Laboratory Near-Earth Asteroid Research project

・ 軌道要素

   The following improved orbital elements by Kenji Muraoka, are
  from 109 observations 2000 Jan. 2 to 2001 Mar. 23, perturbations
  by 9 Planets, Moon and 5 minor planets were taken into account. 
   The mean residual is +/- 0.54 arc seconds.

      Epoch  =  2000 June 25.0  TT       JDT = 2451720.5
          T  =  2000 June 14.56645       +/- 0.09317 (m.e.) TT
       Peri. =  126.13348                +/- 0.01531
       Node  =    0.62668                +/- 0.01622   (2000.0)
       Incl. =   15.90933                +/- 0.00006
          q  =    6.8295638              +/- 0.0005703 AU
          e  =    0.6207126              +/- 0.0000218
          a  =   18.0063007              +/- 0.0010919 AU
          n  =    0.01289934             +/- 0.00000117
          P  =   76.408                  +/- 0.0069498  years
                                        (+/- 2.54 days)

・ 星図

・ 光度変化

        m1 = 7.0 + 5 logΔ + 10.0 log r

---------------------------------------------------------------------

軌道要素は村岡健治氏の計算によるものです。
星図は StellaNavigator Ver.2.0 for Windows (アストロアーツ 編著 / アスキー出版局刊) で作成したものです。
光度グラフはComet for Windowsで作成したものです。

---------------------------------------------------------------------

Copyright(C) Seiichi Yoshida (comet@aerith.net). All rights reserved.